�������l�o���
Date,Time,MP-1(��Sv/h),MP-2(��Sv/h),MP-3(��Sv/h),MP-4(��Sv/h),MP-5(��Sv/h),MP-6(��Sv/h),MP-7(��Sv/h),MP-8(��Sv/h),����,����(m/s),���J
2017/01/23,00:00,1.045,1.761,1.148,1.986,1.371,0.551,1.014,0.942,�k�k��,8.3,��
2017/01/23,00:10,1.042,1.762,1.145,1.989,1.369,0.549,1.013,0.946,�k�k��,8.6,��
2017/01/23,00:20,1.043,1.760,1.144,1.987,1.369,0.551,1.013,0.945,�k�k��,9.7,��
2017/01/23,00:30,1.044,1.763,1.144,1.986,1.368,0.548,1.013,0.945,�k��,8.2,��
2017/01/23,00:40,1.044,1.761,1.145,1.988,1.366,0.549,1.012,0.946,�k��,8.2,��
2017/01/23,00:50,1.046,1.764,1.145,1.988,1.370,0.548,1.015,0.944,�k��,8.8,��
2017/01/23,01:00,1.046,1.763,1.146,1.986,1.369,0.550,1.014,0.946,�k��,9.1,��
2017/01/23,01:10,1.046,1.763,1.145,1.985,1.368,0.550,1.015,0.945,�k��,8.9,��
2017/01/23,01:20,1.045,1.763,1.147,1.988,1.369,0.549,1.016,0.944,�k��,9.3,��
2017/01/23,01:30,1.043,1.762,1.147,1.989,1.368,0.550,1.015,0.945,�k��,9.0,��
2017/01/23,01:40,1.045,1.761,1.146,1.987,1.368,0.551,1.015,0.946,�k��,8.5,��
2017/01/23,01:50,1.047,1.764,1.147,1.989,1.367,0.550,1.015,0.944,�k��,6.8,��
2017/01/23,02:00,1.043,1.764,1.147,1.988,1.370,0.551,1.015,0.947,�k��,8.0,��
2017/01/23,02:10,1.044,1.762,1.146,1.986,1.368,0.550,1.014,0.946,�k��,9.4,��
2017/01/23,02:20,1.045,1.763,1.148,1.987,1.369,0.549,1.014,0.946,�k��,11.0,��
2017/01/23,02:30,1.045,1.766,1.146,1.989,1.368,0.552,1.016,0.945,�k��,11.8,��
2017/01/23,02:40,1.046,1.763,1.147,1.984,1.366,0.551,1.014,0.947,�k��,13.2,��
2017/01/23,02:50,1.044,1.761,1.146,1.987,1.370,0.551,1.016,0.944,�k��,9.6,��
2017/01/23,03:00,1.042,1.759,1.144,1.991,1.370,0.549,1.014,0.946,�k��,8.0,��
2017/01/23,03:10,1.043,1.763,1.143,1.990,1.368,0.549,1.015,0.946,�k��,9.0,��
2017/01/23,03:20,1.042,1.764,1.144,1.992,1.370,0.548,1.015,0.946,�k��,7.4,��
2017/01/23,03:30,1.043,1.762,1.145,1.988,1.369,0.548,1.015,0.945,�k��,7.0,��
2017/01/23,03:40,1.041,1.760,1.146,1.988,1.368,0.548,1.015,0.947,�k��,8.1,��
2017/01/23,03:50,1.042,1.762,1.144,1.992,1.366,0.551,1.014,0.947,�k��,5.6,��
2017/01/23,04:00,1.040,1.762,1.144,1.990,1.368,0.552,1.015,0.946,��,7.9,��
2017/01/23,04:10,1.042,1.763,1.147,1.988,1.370,0.551,1.015,0.946,��,12.8,��
2017/01/23,04:20,1.041,1.761,1.144,1.991,1.367,0.550,1.015,0.947,���k��,9.9,��
2017/01/23,04:30,1.043,1.762,1.145,1.989,1.367,0.549,1.016,0.944,���k��,9.6,��
2017/01/23,04:40,1.042,1.761,1.145,1.990,1.367,0.549,1.017,0.947,���k��,8.8,��
2017/01/23,04:50,1.042,1.760,1.143,1.991,1.366,0.549,1.015,0.946,��,7.7,��
2017/01/23,05:00,1.042,1.760,1.143,1.992,1.366,0.549,1.015,0.944,��,10.6,��
2017/01/23,05:10,1.042,1.765,1.144,1.988,1.366,0.550,1.014,0.945,��,9.5,��
2017/01/23,05:20,1.041,1.761,1.142,1.988,1.366,0.548,1.015,0.945,��,8.8,��
2017/01/23,05:30,1.043,1.760,1.144,1.992,1.366,0.549,1.014,0.944,���쐼,7.9,��
2017/01/23,05:40,1.041,1.758,1.144,1.990,1.366,0.551,1.014,0.945,���쐼,8.1,��
2017/01/23,05:50,1.040,1.761,1.143,1.990,1.365,0.548,1.013,0.942,�쐼,7.3,��
2017/01/23,06:00,1.039,1.759,1.145,1.991,1.363,0.549,1.014,0.943,�쐼,6.7,��
2017/01/23,06:10,1.039,1.757,1.145,1.989,1.362,0.548,1.012,0.945,�쐼,5.7,��
2017/01/23,06:20,1.037,1.755,1.142,1.988,1.364,0.547,1.013,0.944,�쐼,5.4,��
2017/01/23,06:30,1.038,1.756,1.145,1.992,1.363,0.547,1.015,0.945,�쐼,6.1,��
2017/01/23,06:40,1.037,1.754,1.144,1.988,1.363,0.547,1.013,0.944,�쐼,6.2,��
2017/01/23,06:50,1.036,1.755,1.144,1.988,1.360,0.549,1.014,0.945,�쐼,7.5,��
2017/01/23,07:00,1.038,1.759,1.143,1.990,1.359,0.548,1.015,0.945,�쐼,8.1,��
2017/01/23,07:10,1.038,1.757,1.145,1.990,1.361,0.549,1.014,0.943,���쐼,7.0,��
2017/01/23,07:20,1.037,1.757,1.143,1.988,1.360,0.547,1.014,0.946,���쐼,6.3,��
2017/01/23,07:30,1.041,1.757,1.142,1.988,1.361,0.550,1.014,0.944,���쐼,5.2,��
2017/01/23,07:40,1.040,1.758,1.144,1.990,1.364,0.549,1.014,0.944,���쐼,6.7,��
2017/01/23,07:50,1.040,1.759,1.144,1.990,1.362,0.550,1.014,0.944,���쐼,5.7,��
2017/01/23,08:00,1.040,1.759,1.144,1.989,1.363,0.550,1.012,0.945,��,7.3,��
2017/01/23,08:10,1.039,1.761,1.144,1.990,1.364,0.551,1.014,0.946,��,8.6,��
2017/01/23,08:20,1.040,1.759,1.143,1.991,1.364,0.551,1.013,0.944,��,4.9,��
2017/01/23,08:30,1.034,1.761,1.140,1.991,1.364,0.549,1.014,0.944,��,5.2,��
2017/01/23,08:40,1.038,1.761,1.143,1.991,1.362,0.550,1.014,0.944,��,5.2,��
2017/01/23,08:50,1.044,1.763,1.145,1.987,1.365,0.550,1.016,0.945,��,7.0,��
2017/01/23,09:00,1.045,1.764,1.146,1.991,1.368,0.550,1.013,0.945,��,6.8,��
2017/01/23,09:10,1.044,1.765,1.147,1.996,1.365,0.550,1.015,0.946,��,7.6,��
2017/01/23,09:20,1.045,1.761,1.146,1.988,1.368,0.552,1.016,0.948,��,9.7,��
2017/01/23,09:30,1.047,1.763,1.146,1.995,1.370,0.550,1.017,0.946,���k��,8.7,��
2017/01/23,09:40,1.047,1.766,1.146,1.994,1.364,0.552,1.013,0.948,���k��,9.0,��
2017/01/23,09:50,1.049,1.766,1.146,1.992,1.369,0.552,1.014,0.946,���k��,7.0,��
2017/01/23,10:00,1.049,1.765,1.148,1.995,1.372,0.553,1.015,0.946,��,8.8,��
2017/01/23,10:10,1.051,1.766,1.148,1.992,1.370,0.551,1.015,0.945,��,6.0,��
2017/01/23,10:20,1.051,1.769,1.148,1.995,1.373,0.552,1.016,0.948,���k��,8.9,��
2017/01/23,10:30,1.050,1.763,1.149,1.996,1.376,0.552,1.017,0.948,��,6.3,��
2017/01/23,10:40,1.052,1.768,1.149,1.996,1.376,0.551,1.015,0.948,��,8.4,��
2017/01/23,10:50,1.050,1.766,1.152,1.998,1.375,0.553,1.016,0.947,��,8.0,��
2017/01/23,11:00,1.053,1.769,1.151,1.997,1.376,0.551,1.015,0.947,��,8.8,��
2017/01/23,11:10,1.052,1.768,1.150,1.998,1.372,0.553,1.017,0.946,��,7.2,��
2017/01/23,11:20,1.052,1.768,-,1.995,1.374,0.555,1.017,0.948,��,6.9,��
2017/01/23,11:30,1.053,1.771,-,1.998,1.377,0.554,1.016,0.948,��,12.2,��
2017/01/23,11:40,1.054,1.771,-,2.000,1.378,0.555,1.017,0.948,���k��,9.0,��
2017/01/23,11:50,1.052,1.770,-,1.999,1.377,0.554,1.014,0.946,��,7.1,��
2017/01/23,12:00,1.053,1.770,-,1.996,1.378,0.553,1.016,0.946,���k��,12.2,��
2017/01/23,12:10,1.052,1.772,-,1.998,1.376,0.554,1.016,0.947,���k��,9.7,��
2017/01/23,12:20,1.054,1.772,-,1.998,1.378,0.555,1.017,0.948,���k��,10.8,��
2017/01/23,12:30,1.056,1.771,-,1.998,1.377,0.555,1.016,0.948,���k��,9.3,��
2017/01/23,12:40,1.054,1.771,-,1.998,1.378,0.553,1.014,0.949,���k��,6.9,��
2017/01/23,12:50,1.054,1.770,-,2.002,1.377,0.555,1.018,0.948,���k��,10.5,��
2017/01/23,13:00,1.055,1.769,-,1.999,1.378,0.555,1.017,0.948,��,10.6,��
2017/01/23,13:10,1.056,1.769,-,2.000,1.380,0.554,1.017,0.950,��,8.9,��
2017/01/23,13:20,1.054,1.773,-,2.003,1.379,0.555,1.017,0.946,��,10.2,��
2017/01/23,13:30,1.057,1.774,-,2.001,1.378,0.554,1.019,0.946,��,10.6,��
2017/01/23,13:40,1.053,1.774,-,2.000,1.379,0.554,1.017,0.946,��,9.9,��
2017/01/23,13:50,1.053,1.775,-,2.001,1.377,0.554,1.019,0.949,��,9.1,�L
2017/01/23,14:00,1.052,1.774,-,2.002,1.379,0.555,1.017,0.946,���k��,9.0,�L
2017/01/23,14:10,1.055,1.771,-,1.997,1.379,0.556,1.017,0.947,��,6.4,��
2017/01/23,14:20,1.053,1.771,-,2.003,1.384,0.557,1.018,0.946,��,5.9,��
2017/01/23,14:30,1.056,1.775,-,2.001,1.380,0.556,1.016,0.946,��,7.3,��
2017/01/23,14:40,1.056,1.773,-,2.002,1.381,0.556,1.017,0.947,��,6.5,��
2017/01/23,14:50,1.053,1.776,-,1.999,1.383,0.554,1.018,0.946,��,5.7,��
2017/01/23,15:00,1.054,1.775,-,1.999,1.381,0.556,1.017,0.947,��,5.7,��
2017/01/23,15:10,1.054,1.776,-,2.000,1.379,0.555,1.015,0.946,��,5.6,��
2017/01/23,15:20,1.055,1.777,-,1.997,1.379,0.553,1.015,0.944,���k��,4.4,��
2017/01/23,15:30,1.051,1.774,-,1.995,1.380,0.554,1.016,0.945,���쐼,2.8,��
2017/01/23,15:40,1.052,1.774,-,1.997,1.379,0.552,1.015,0.945,�쐼,3.1,��
2017/01/23,15:50,1.051,1.774,-,1.995,1.377,0.554,1.017,0.946,���쐼,2.6,��
2017/01/23,16:00,1.054,1.774,-,1.997,1.377,0.553,1.014,0.947,���쐼,2.8,��
2017/01/23,16:10,1.053,1.775,1.152,1.998,1.378,0.552,1.015,0.946,��,3.7,��
2017/01/23,16:20,1.054,1.776,1.153,1.998,1.379,0.553,1.016,0.945,���k��,6.1,��
2017/01/23,16:30,1.053,1.776,1.155,1.998,1.378,0.552,1.015,0.948,���k��,5.4,��
2017/01/23,16:40,1.053,1.773,1.152,1.997,1.380,0.554,1.013,0.946,��,4.7,��
2017/01/23,16:50,1.053,1.774,1.153,2.001,1.379,0.552,1.017,0.945,��,5.9,��
2017/01/23,17:00,1.053,1.778,1.150,1.999,1.380,0.554,1.016,0.944,��,5.8,��
2017/01/23,17:10,1.052,1.775,1.151,2.002,1.381,0.552,1.016,0.946,���k��,5.6,��
2017/01/23,17:20,1.051,1.774,1.152,1.997,1.379,0.552,1.015,0.944,���k��,6.8,��
2017/01/23,17:30,1.054,1.776,1.151,1.999,1.380,0.553,1.017,0.948,�k��,8.2,��
2017/01/23,17:40,1.052,1.776,1.151,1.997,1.381,0.550,1.015,0.946,�k��,9.4,��
2017/01/23,17:50,1.052,1.775,1.148,1.999,1.379,0.552,1.014,0.946,�k��,7.4,��
2017/01/23,18:00,1.050,1.772,1.148,2.001,1.378,0.549,1.018,0.946,���k��,9.2,��
2017/01/23,18:10,1.048,1.774,1.148,1.994,1.377,0.550,1.017,0.945,�k��,10.2,��
2017/01/23,18:20,1.051,1.775,1.147,1.998,1.380,0.548,1.015,0.945,�k��,9.6,��
2017/01/23,18:30,1.048,1.777,1.146,1.998,1.379,0.549,1.015,0.945,���k��,7.1,��
2017/01/23,18:40,1.050,1.775,1.146,1.999,1.379,0.550,1.016,0.945,���k��,7.6,��
2017/01/23,18:50,1.049,1.772,1.148,1.999,1.379,0.549,1.015,0.944,���k��,8.6,��
2017/01/23,19:00,1.050,1.774,1.149,1.995,1.378,0.549,1.015,0.946,���k��,7.1,��
2017/01/23,19:10,1.051,1.774,1.148,1.996,1.379,0.551,1.017,0.945,��,5.9,��
2017/01/23,19:20,1.048,1.772,1.149,1.995,1.378,0.550,1.013,0.944,���k��,7.0,��
2017/01/23,19:30,1.050,1.773,1.149,1.998,1.377,0.551,1.015,0.947,���k��,6.6,��
2017/01/23,19:40,1.048,1.772,1.151,1.999,1.379,0.552,1.013,0.946,���k��,6.6,��
2017/01/23,19:50,1.049,1.773,1.149,1.999,1.378,0.552,1.016,0.945,��,4.7,��
2017/01/23,20:00,1.048,1.772,1.150,2.001,1.376,0.552,1.015,0.947,��,5.2,��
2017/01/23,20:10,1.049,1.773,1.150,1.998,1.377,0.550,1.014,0.946,��,6.2,��
2017/01/23,20:20,1.048,1.774,1.151,1.999,1.375,0.550,1.015,0.944,���쐼,5.1,��
2017/01/23,20:30,1.046,1.772,1.147,1.995,1.376,0.551,1.013,0.946,���쐼,6.8,��
2017/01/23,20:40,1.045,1.772,1.150,1.997,1.377,0.551,1.016,0.944,���쐼,8.0,��
2017/01/23,20:50,1.040,1.775,1.148,1.998,1.377,0.551,1.015,0.945,���쐼,7.0,��
2017/01/23,21:00,1.042,1.770,1.148,1.995,1.375,0.550,1.014,0.944,��,6.0,��
2017/01/23,21:10,1.043,1.773,1.149,1.998,1.376,0.552,1.015,0.944,���쐼,6.2,��
2017/01/23,21:20,1.041,1.770,1.149,1.997,1.377,0.551,1.014,0.945,��,3.6,��
2017/01/23,21:30,1.043,1.773,1.149,1.994,1.376,0.549,1.014,0.943,��,2.9,��
2017/01/23,21:40,1.042,1.773,1.149,1.995,1.375,0.550,1.013,0.945,��,2.0,��
2017/01/23,21:50,1.044,1.771,1.149,1.997,1.374,0.551,1.014,0.945,��,2.6,��
2017/01/23,22:00,1.045,1.770,1.148,1.994,1.375,0.550,1.013,0.945,���k��,3.3,��
2017/01/23,22:10,1.043,1.770,1.147,1.998,1.373,0.549,1.014,0.943,��,3.2,��
2017/01/23,22:20,1.042,1.773,1.147,1.994,1.374,0.548,1.013,0.946,���k��,2.3,��
2017/01/23,22:30,1.041,1.773,1.148,1.995,1.373,0.551,1.013,0.944,���k��,1.7,��
2017/01/23,22:40,1.042,1.770,1.147,1.993,1.374,0.552,1.013,0.943,���k��,2.5,��
2017/01/23,22:50,1.045,1.771,1.148,1.994,1.374,0.549,1.014,0.945,���쐼,1.5,��
2017/01/23,23:00,1.043,1.769,1.147,1.994,1.370,0.550,1.012,0.943,�쐼,4.0,��
2017/01/23,23:10,1.040,1.772,1.148,1.995,1.371,0.549,1.013,0.944,���쐼,4.5,��
2017/01/23,23:20,1.040,1.769,1.147,1.997,1.371,0.550,1.014,0.944,���쐼,3.2,��
2017/01/23,23:30,1.042,1.771,1.146,1.994,1.372,0.550,1.016,0.945,���k��,3.4,��
2017/01/23,23:40,1.043,1.769,1.143,1.998,1.373,0.549,1.015,0.944,�k��,2.3,��
2017/01/23,23:50,1.043,1.769,1.147,1.994,1.371,0.550,1.011,0.944,�k��,2.0,��
